This demonstration page uses our WeatherBlox Daily Observations layout. Learn more.

Left ArrowRight Arrow

47.50024, -111.30081

Hourly Observations for November 13, 2015

Temp ( °F °C ) Dew Point ( °F °C ) Humidity (%) Winds ( mph kmh ) Pressure ( in mb ) Visibility ( mi km ) Precip ( " mm )
12:53 am 00:53 Clear 41 5 20 -6.7 43 43 SW 31 50 29.92 1013 10 16 0.00 0.00
1:53 am 01:53 Clear 42 5.6 21 -6.1 43 43 SW 36 57 29.91 1013 10 16 0.00 0.00
2:53 am 02:53 Mostly Clear 43 6.1 22 -5.6 43 43 SW 35 56 29.89 1012 10 16 0.00 0.00
3:53 am 03:53 Clear 44 6.7 23 -5 43 43 SSW 29 46 29.91 1013 10 16 0.00 0.00
4:53 am 04:53 Clear 44 6.7 25 -3.9 47 47 SSW 22 35 29.91 1013 10 16 0.00 0.00
5:53 am 05:53 Clear 44 6.7 26 -3.3 49 49 SSW 35 56 29.87 1012 10 16 0.00 0.00
6:53 am 06:53 Clear 45 7.2 27 -2.8 49 49 SSW 36 57 29.86 1011 10 16 0.00 0.00
7:53 am 07:53 Sunny 46 7.8 28 -2.2 50 50 SW 32 52 29.86 1011 10 16 0.00 0.00
8:53 am 08:53 Sunny 48 8.9 29 -1.7 48 48 SSW 33 54 29.87 1012 10 16 0.00 0.00
9:53 am 09:53 Partly Cloudy 49 9.4 29 -1.7 46 46 S 25 41 29.88 1012 10 16 0.00 0.00
10:53 am 10:53 Sunny 52 11.1 31 -0.6 45 45 SW 31 50 29.86 1011 10 16 0.00 0.00
11:53 am 11:53 Sunny 53 11.7 31 -0.6 43 43 SSW 33 54 29.81 1010 10 16 0.00 0.00
12:53 pm 12:53 Sunny 55 12.8 32 0 42 42 SW 39 63 29.78 1009 10 16 0.00 0.00
1:53 pm 13:53 Sunny 56 13.3 32 0 40 40 SW 31 50 29.78 1009 10 16 0.00 0.00
4:53 pm 16:53 Clear 52 11.1 33 0.6 49 49 SW 18 30 29.81 1010 10 16 0.00 0.00
5:53 pm 17:53 Clear 51 10.6 33 0.6 50 50 SW 21 33 29.80 1009 10 16 0.00 0.00
6:53 pm 18:53 Clear 51 10.6 33 0.6 50 50 SSW 24 39 29.80 1009 10 16 0.00 0.00
7:53 pm 19:53 Clear 51 10.6 34 1.1 52 52 SSW 23 37 29.80 1009 10 16 0.00 0.00
8:53 pm 20:53 Clear 51 10.6 33 0.6 50 50 SW 22 35 29.79 1009 10 16 0.00 0.00
9:53 pm 21:53 Clear 50 10 33 0.6 52 52 SSW 31 50 29.78 1008 10 16 0.00 0.00
10:53 pm 22:53 Clear 50 10 33 0.6 52 52 SSW 20 31 29.79 1009 10 16 0.00 0.00
11:53 pm 23:53 Clear 50 10 32 0 50 50 SSW 17 28 29.80 1009 10 16 0.00 0.00

Powered by AerisWeather